Temp
14 14 14 14 14 14 14 14 14 14 14 14 14 14 14 13 13 14 14 14 14 14 15 16 17 17 17 16 17 16 12 12 17 17 17 17 16 16 14 13 15 14 13 11 12
14 14 14 14 14 14 14 14 14 14 14 14 14 14 14 13 13 12 14 15 16 15 15 15 15 16 14 16 15 13 11 15 18 17 15 17 17 14 15 14 14 14 12 11 12
14 14 14 14 14 14 14 13 14 13 13 13 14 13 14 13 12 14 15 16 16 15 15 15 16 16 16 15 15 15 13 17 16 15 15 15 16 15 13 13 12 12 10 11 11
14 14 14 13 14 13 13 13 13 13 13 13 13 13 14 13 15 15 15 16 16 16 15 16 16 16 16 16 16 15 16 16 16 15 15 15 14 14 12 12 11 10 11 11 11
14 14 14 13 13 13 13 13 13 13 13 13 12 12 13 13 14 15 15 15 15 15 16 16 15 15 15 14 16 15 15 16 16 14 14 14 13 13 13 12 11 12 11 11 11
13 13 14 13 13 13 13 13 13 13 13 12 12 12 12 13 15 15 15 15 15 15 15 15 14 14 14 14 15 14 14 14 15 14 14 13 13 13 13 11 10 11 11 10 9
12 13 12 13 13 13 13 12 12 13 13 12 13 11 12 13 15 15 15 15 15 15 14 14 14 13 13 13 13 13 12 12 13 14 13 12 11 11 12 12 10 10 10 10 8
11 12 12 12 13 13 13 12 12 13 12 13 12 11 11 15 15 15 15 15 15 15 14 14 13 13 13 12 13 13 13 11 13 12 11 12 10 11 11 11 10 10 10 9 8
10 11 12 12 12 12 12 12 12 13 12 12 12 12 12 15 14 15 15 14 14 14 14 14 13 12 12 11 11 13 11 11 12 13 10 10 10 11 10 10 9 9 10 8 6
11 11 12 12 12 12 11 11 13 12 13 12 12 13 14 15 14 15 14 14 13 13 13 13 10 8 9 9 9 10 10 11 11 12 11 9 9 10 10 10 9 8 8 4 1
8 10 11 12 12 13 10 12 12 12 13 14 15 15 16 14 14 14 14 14 13 13 11 11 9 7 9 9 11 11 11 10 12 11 10 9 9 10 10 10 8 8 7 1 2
9 9 10 11 10 12 11 11 10 10 11 13 14 15 14 14 14 14 14 13 12 11 12 11 9 12 13 11 11 11 10 9 11 10 10 9 8 7 10 9 7 5 4 2 1
8 9 9 10 10 11 11 9 9 10 10 13 14 14 13 13 13 12 13 12 12 12 12 11 12 13 13 12 11 11 10 10 10 10 10 9 7 6 9 9 9 6 4 0 -1
9 9 9 10 10 11 9 8 9 10 11 13 13 13 13 14 13 13 13 12 12 12 13 13 13 13 12 12 10 10 10 10 9 8 7 10 7 8 8 6 8 6 2 -0 -1
9 9 9 9 9 8 7 8 9 9 8 13 13 13 13 13 12 11 12 12 11 12 12 12 12 12 12 11 11 9 9 9 9 7 8 8 6 7 8 6 8 5 2 -1 -2
9 9 9 9 8 7 8 8 9 11 11 12 12 11 11 10 11 12 12 11 11 11 11 11 12 11 10 10 10 9 9 8 8 7 5 5 7 6 4 2 4 2 0 -0 -1
9 9 9 8 7 7 8 9 10 10 12 12 12 11 11 11 13 12 9 9 7 8 7 11 10 10 10 9 9 9 7 6 9 8 6 5 7 5 5 6 -1 -2 -2 -2 -2
9 8 8 7 7 7 7 9 7 11 13 12 12 12 11 12 13 13 12 8 10 8 4 7 9 9 10 9 8 9 7 7 9 8 8 7 5 7 6 4 -3 -5 -6 -2 -2
9 9 8 8 7 7 8 7 11 12 13 12 12 11 13 12 10 11 12 10 9 6 7 6 10 9 8 9 8 8 6 7 5 4 5 7 7 7 6 4 0 -2 -4 -3 -3
8 9 7 7 8 8 8 9 10 11 11 11 10 10 11 11 10 9 10 8 7 8 8 7 5 9 8 8 7 8 7 7 5 6 6 9 7 5 3 1 -1 -3 -5 -4 -3
8 6 7 8 7 6 10 9 11 10 10 8 10 8 9 9 9 9 9 7 7 5 7 7 4 7 8 6 8 6 5 6 6 5 5 5 7 -1 -2 -6 -5 -5 -6 -5 -4
8 5 7 8 5 5 8 9 9 10 8 8 8 8 8 8 8 8 8 7 5 5 5 7 5 4 8 6 7 7 8 8 6 6 3 3 6 1 -3 -6 -8 -7 -6 -6 -4
6 6 7 7 5 6 8 9 9 8 8 7 7 7 6 7 8 9 8 5 4 5 4 5 4 4 6 6 6 6 7 5 4 2 3 4 6 3 1 -5 -7 -8 -6 -6 -4
6 6 5 4 5 7 7 7 8 7 7 7 7 7 6 7 7 8 7 5 4 4 5 6 4 5 8 7 5 5 5 6 5 3 2 4 3 4 3 -4 -6 -6 -7 -6 -5
6 6 8 6 5 6 6 6 7 7 5 6 6 6 7 7 5 7 6 5 4 4 5 3 4 5 6 7 7 7 5 4 3 5 5 2 1 1 -3 -6 -7 -9 -7 -6 -5
6 4 4 5 7 6 6 6 8 6 6 7 6 6 6 6 7 7 6 5 6 4 4 3 5 5 4 7 6 7 7 6 4 5 4 1 3 1 -3 -3 -7 -10 -7 -7 -7
8 8 7 6 5 5 6 6 7 6 5 7 6 5 6 6 4 4 4 3 4 4 4 3 4 4 5 8 3 6 4 5 3 1 3 4 5 1 1 1 -5 -7 -10 -8 -7
Height
816 814 813 810 807 805 802 800 796 794 792 789 786 783 781 777 774 771 770 771 770 768 766 764 761 762 764 764 764 764 781 784 762 759 756 752 756 754 756 760 760 761 765 771 774
815 813 811 808 806 804 802 799 796 793 791 788 785 782 779 776 772 771 771 769 768 766 766 764 763 761 765 763 765 774 786 767 756 756 759 755 753 758 759 760 762 764 767 770 771
812 810 808 806 805 803 801 798 795 792 790 787 784 781 778 776 774 770 769 768 767 766 765 764 762 763 763 761 763 765 771 756 758 757 758 759 756 756 761 763 764 764 769 769 770
809 807 805 804 802 800 798 796 794 791 788 785 783 780 777 775 779 768 768 767 766 765 764 762 761 763 763 761 756 762 756 755 754 757 757 759 758 758 760 760 762 764 766 768 770
805 803 802 800 799 797 796 794 793 790 787 784 781 779 776 776 771 768 767 767 766 765 764 762 762 762 764 762 757 759 756 752 752 755 756 757 759 760 757 756 760 761 764 766 766
803 800 798 797 795 794 793 791 789 787 785 783 780 777 777 779 768 768 767 766 766 765 764 762 765 764 764 762 760 760 758 756 752 753 753 755 756 757 753 754 760 761 763 765 767
801 798 796 793 791 789 789 788 786 784 783 780 777 776 776 771 766 767 766 766 765 765 765 766 765 765 766 763 763 761 762 757 752 747 753 754 758 754 751 754 759 761 763 764 767
798 795 793 791 788 786 785 785 784 782 779 777 775 775 773 765 765 766 765 764 765 765 765 766 766 766 765 766 761 762 758 764 749 747 758 756 763 754 750 754 758 761 762 763 762
796 792 789 787 785 783 781 780 779 778 776 775 775 774 770 764 764 765 765 765 765 765 765 766 766 768 767 768 768 759 766 762 754 749 757 761 761 751 751 753 758 759 759 761 761
793 790 785 782 781 779 778 775 774 774 772 772 773 777 767 764 764 764 765 764 764 763 767 768 773 779 778 780 784 770 768 761 763 754 756 763 758 752 751 752 756 759 759 764 767
793 787 782 778 777 774 775 774 775 775 771 766 762 762 761 764 763 763 764 764 764 764 769 770 781 788 774 772 764 765 762 767 754 758 758 762 756 749 746 749 756 757 762 769 763
792 785 781 778 776 774 775 775 777 779 773 763 760 761 762 764 764 763 765 766 764 767 765 773 777 759 757 762 764 762 768 768 756 759 760 758 753 754 743 748 757 763 764 768 767
792 787 782 779 777 778 777 778 776 776 776 763 761 762 764 765 765 768 766 765 763 763 760 768 757 754 755 756 762 764 767 762 763 760 753 756 758 760 749 748 751 762 767 769 768
792 788 782 779 781 779 779 779 776 775 775 766 763 765 764 763 767 765 764 768 762 759 756 756 756 754 756 759 765 767 763 763 765 773 777 751 774 753 753 762 753 762 767 769 765
792 789 784 780 781 780 781 778 777 774 805 767 766 764 762 764 763 762 763 766 763 759 760 758 754 757 758 762 762 769 765 767 767 773 769 759 782 759 754 765 754 763 769 768 763
792 787 784 783 781 782 780 778 778 775 776 766 766 768 766 767 767 760 762 766 762 761 758 757 755 758 763 765 766 766 766 768 769 775 789 779 771 769 779 783 767 769 770 766 758
791 788 785 783 784 782 781 780 788 782 766 767 764 768 767 765 758 758 769 770 778 780 780 754 760 763 763 768 768 768 775 790 764 769 779 777 770 770 766 762 781 782 775 767 759
789 787 787 785 784 783 782 784 807 771 761 765 764 761 766 761 757 755 757 774 764 772 795 779 769 768 765 771 771 766 775 782 765 770 767 765 780 762 761 767 783 782 779 764 760
786 786 785 785 784 784 783 801 779 768 764 764 765 763 757 762 769 763 755 764 770 780 781 788 762 769 770 770 773 768 786 776 788 790 788 762 760 763 763 767 775 777 776 768 762
784 783 785 784 784 783 787 788 778 772 771 767 776 771 767 766 772 771 765 776 779 776 775 782 796 766 773 773 773 771 774 779 785 783 789 750 759 774 777 780 781 781 779 771 764
783 785 786 783 782 785 782 786 773 778 778 781 776 783 779 779 777 775 767 781 779 787 780 782 797 780 774 777 768 779 785 780 781 785 789 787 763 791 797 804 794 786 782 776 768
783 792 783 784 793 793 788 781 782 777 782 784 783 784 784 783 780 776 774 780 788 790 791 783 792 796 769 775 773 772 767 768 779 782 799 798 772 778 791 798 799 791 782 776 769
784 784 782 782 799 791 785 781 783 784 783 785 785 787 789 788 779 773 773 790 790 789 791 788 797 797 773 777 775 775 771 777 787 800 798 798 769 774 779 793 796 791 780 777 770
782 787 787 787 788 785 787 786 785 786 788 787 787 787 788 786 782 778 779 788 789 788 788 788 792 782 764 766 777 779 776 774 780 794 801 782 776 770 773 793 793 786 784 778 773
778 780 777 784 789 788 789 789 785 788 791 789 788 788 786 783 792 780 782 786 788 787 787 794 791 782 773 765 765 762 769 780 785 773 774 782 789 783 790 794 796 792 787 778 775
774 781 781 782 781 787 788 788 781 786 787 785 791 786 788 788 784 780 781 783 779 788 787 793 783 780 778 757 762 761 759 763 773 770 773 783 771 778 785 784 796 797 787 783 779
765 767 771 777 784 787 784 785 781 785 789 785 786 790 787 785 789 788 788 787 785 784 786 789 786 782 772 756 777 763 760 759 769 777 772 767 761 775 778 777 792 796 792 787 783
Wind_Speed
16 15 15 16 17 17 17 17 17 18 19 20 20 21 21 22 25 10 1 1 6 11 8 13 10 10 8 2 1 2 2 3 4 5 1 1 2 3 4 5 1 3 3 10 11
17 17 16 16 16 17 18 17 17 18 19 20 21 22 21 22 21 6 2 5 9 7 5 9 6 6 1 3 1 3 3 4 1 2 3 2 2 6 2 2 3 3 10 11 9
20 18 18 17 16 16 17 17 18 18 19 20 21 23 20 20 4 2 3 6 6 5 5 9 9 2 3 5 5 4 5 1 2 3 3 2 1 3 5 3 1 6 5 4 8
22 20 20 19 18 17 18 18 18 19 20 21 22 23 19 3 4 2 5 5 4 5 9 6 4 2 3 4 5 4 6 4 1 3 1 2 1 2 5 5 8 7 5 3 3
22 21 20 21 21 19 17 18 19 20 21 22 23 18 8 2 6 1 6 5 6 6 6 4 4 3 2 5 2 4 4 2 1 5 4 4 4 4 5 5 7 7 5 0 2
19 21 20 20 24 20 18 18 20 20 22 23 21 11 1 4 4 1 6 2 3 7 9 4 2 4 4 4 1 3 5 7 5 6 5 5 4 3 3 8 7 6 3 5 1
18 18 17 17 24 21 18 20 22 21 22 23 15 3 4 10 4 3 2 2 1 4 3 8 5 4 5 6 5 5 5 7 8 7 3 2 5 8 5 9 7 5 6 6 3
19 19 18 17 16 19 18 21 21 22 23 18 6 3 5 5 5 4 2 4 2 2 2 3 5 2 0 5 4 3 3 3 5 8 1 6 7 5 7 8 5 6 6 2 5
22 21 21 19 20 18 20 20 20 21 19 11 3 4 6 2 2 4 2 3 8 3 1 1 2 1 2 0 2 4 4 5 5 0 5 4 6 4 5 6 6 6 3 3 6
23 23 22 20 19 19 20 16 16 18 7 4 7 3 3 1 4 3 3 2 2 2 2 1 3 2 3 3 3 3 3 4 5 4 5 5 13 7 7 7 7 6 4 5 7
26 26 23 17 15 16 10 6 1 2 3 6 3 3 5 1 2 3 2 2 3 2 3 3 2 4 8 9 4 5 4 7 6 3 2 7 11 8 6 6 4 3 3 4 9
27 25 19 14 14 7 2 1 3 1 5 9 11 3 5 3 2 2 2 2 3 4 3 2 6 4 4 6 6 3 5 7 4 3 2 6 12 6 4 4 5 2 6 6 7
24 21 16 11 7 4 2 3 4 2 2 3 2 4 1 3 3 1 3 5 5 4 6 6 2 4 2 2 4 3 5 3 4 6 5 7 6 3 3 4 4 5 2 3 5
23 19 17 12 3 3 2 7 3 0 2 2 2 1 1 1 2 1 1 1 3 4 3 3 2 1 1 3 4 4 1 2 5 4 3 3 4 2 3 3 4 3 7 7 9
21 21 18 11 7 2 6 8 5 0 4 3 1 1 3 2 0 4 2 2 4 4 3 4 2 1 2 1 1 5 2 2 1 3 3 2 2 4 4 3 4 6 8 8 8
19 20 15 5 5 5 8 8 2 2 5 0 1 2 2 2 3 1 2 2 4 3 4 6 3 2 1 2 1 3 3 1 2 1 1 4 3 2 2 4 6 5 7 11 13
16 17 14 7 3 8 10 3 2 3 0 1 1 1 1 3 4 7 2 1 1 4 3 2 3 2 2 2 2 1 4 3 2 1 4 3 2 5 3 1 4 6 8 11 12
12 11 9 9 6 10 3 3 1 5 2 1 3 3 3 5 2 2 2 2 2 3 2 1 4 2 0 1 2 1 3 3 3 2 4 2 4 4 3 4 2 3 6 11 13
10 4 2 8 8 7 2 2 3 3 3 5 7 1 1 1 1 4 1 1 4 1 3 3 2 1 4 1 0 0 0 1 0 2 2 3 1 3 2 5 8 8 9 12 13
5 2 0 8 7 3 3 4 2 5 5 4 1 4 3 5 5 5 3 4 3 5 3 1 3 2 2 1 1 2 2 1 2 2 4 4 3 3 5 8 9 10 10 12 13
2 2 3 6 2 3 2 4 2 4 5 5 2 4 3 3 2 3 2 4 4 4 6 2 3 3 2 5 3 1 1 0 1 2 3 3 4 5 6 5 7 8 9 10 12
1 1 7 4 3 1 2 2 4 4 4 3 2 2 2 2 3 3 2 2 4 2 3 2 1 4 5 2 2 1 2 3 3 3 1 2 5 2 4 4 2 7 8 9 9
1 1 4 3 2 2 4 2 3 2 1 0 0 1 1 2 3 3 3 2 3 2 3 2 3 3 4 2 2 3 3 3 3 2 4 4 4 3 1 3 3 5 8 8 11
2 0 2 2 0 2 2 2 2 2 2 2 2 1 1 3 5 4 3 2 4 4 6 2 3 4 3 3 3 1 3 4 3 2 2 5 3 4 1 3 6 7 7 9 10
1 3 3 2 2 1 2 1 2 2 1 2 2 2 2 3 3 3 2 2 5 3 3 3 4 5 9 13 6 6 5 7 7 5 5 3 3 5 5 3 2 6 6 9 11
3 3 3 1 3 5 2 2 4 1 2 1 3 1 0 4 3 5 3 3 4 4 4 3 3 1 4 6 9 8 9 9 8 4 7 3 8 4 4 3 5 5 7 7 10
8 4 4 4 4 3 4 4 4 3 2 4 2 1 6 4 2 6 4 3 1 3 5 4 2 1 4 2 2 6 7 11 4 3 5 4 3 5 2 2 1 4 6 6 9
Wind_Direction
333 335 338 342 345 343 343 343 345 346 345 345 346 343 338 334 329 341 210 234 312 319 332 341 333 255 237 266 235 57 49 253 268 3 94 270 121 356 148 116 132 146 95 135 123
315 319 324 329 333 332 334 336 338 339 339 340 343 341 337 334 329 287 243 317 323 334 343 347 337 357 271 213 194 114 151 247 351 6 32 243 158 162 110 150 201 149 104 107 92
303 308 310 313 316 321 324 330 332 330 331 335 334 336 333 329 317 193 340 332 339 356 313 297 276 268 250 168 195 199 209 204 29 109 54 353 301 125 133 245 225 202 116 78 78
298 300 303 301 303 308 314 319 322 324 327 329 330 332 330 325 326 191 340 334 358 352 315 282 264 237 229 223 206 216 255 284 183 87 60 280 308 314 180 213 151 132 135 126 106
299 294 297 297 296 294 301 307 312 318 321 325 326 330 345 317 252 328 335 340 351 314 291 332 354 351 315 341 322 215 258 311 203 171 214 271 250 237 248 202 150 139 121 261 249
316 312 305 305 299 290 290 299 304 313 317 322 323 326 303 265 130 295 350 355 338 356 344 46 20 317 283 276 260 308 313 286 282 218 211 213 237 166 254 143 155 148 178 254 87
326 326 320 296 292 292 288 299 303 307 312 319 321 303 255 239 214 289 353 321 24 6 10 38 34 34 344 317 345 328 319 304 248 212 139 73 283 238 176 140 154 184 220 248 123
327 318 320 312 301 295 293 294 296 302 309 314 300 200 248 227 226 269 258 297 216 120 44 70 18 296 223 317 323 286 227 290 289 144 145 105 269 332 138 141 194 223 245 43 342
330 322 314 306 302 303 300 293 287 294 303 299 252 200 275 210 179 179 282 317 313 238 206 238 28 51 355 295 306 228 279 247 310 304 134 164 260 211 170 177 210 231 255 325 339
334 329 319 305 300 302 303 295 294 293 290 242 267 317 231 321 143 192 207 304 278 5 175 130 48 57 349 97 244 226 276 296 279 258 193 198 252 249 242 198 214 238 274 8 315
340 338 328 317 310 307 304 316 57 299 247 215 212 268 345 70 185 186 148 299 234 230 215 195 79 240 233 207 214 272 264 270 286 301 264 236 264 256 266 180 209 229 333 310 344
350 356 352 356 346 355 266 302 56 321 297 279 266 245 98 28 310 101 336 263 178 242 166 73 238 207 143 173 221 281 286 281 285 174 238 265 274 266 169 138 165 137 29 321 301
356 355 355 356 4 8 51 54 303 269 264 299 355 56 7 37 340 41 31 326 246 262 269 202 255 144 189 252 244 262 237 276 267 326 261 283 294 42 42 82 95 95 210 260 289
355 352 352 346 326 332 22 330 341 154 350 205 98 322 139 157 96 342 77 241 283 253 294 270 177 148 230 259 128 273 29 346 321 356 261 68 284 258 197 231 157 354 357 331 312
351 356 349 359 321 26 317 322 334 99 359 350 264 305 238 157 124 235 163 216 251 293 70 255 136 267 258 337 14 245 344 285 280 264 317 297 86 286 137 285 272 342 334 319 309
348 354 1 342 351 349 339 329 312 60 255 286 56 351 329 175 208 195 206 238 249 289 231 230 128 88 129 85 310 307 302 186 239 223 344 252 130 250 204 223 293 307 322 330 329
346 352 9 352 332 340 332 322 34 163 184 197 313 13 241 264 242 191 185 241 130 19 358 357 146 92 88 287 287 301 44 326 317 267 227 312 82 246 230 224 228 289 318 322 326
340 345 353 10 345 331 332 54 94 275 34 246 255 260 233 8 250 304 187 272 100 88 18 60 314 42 173 205 236 9 145 169 273 307 283 357 248 288 121 100 351 267 297 329 331
341 329 288 344 332 325 62 54 215 339 347 349 320 132 149 79 310 354 304 45 54 88 123 23 276 92 44 9 326 318 249 121 235 232 28 214 157 22 168 347 354 339 335 332 332
342 309 312 335 321 308 81 236 239 21 332 29 292 18 323 353 336 0 314 359 95 48 41 21 316 185 178 283 39 164 130 33 15 347 306 280 166 197 314 313 325 335 334 332 327
346 23 344 344 2 54 223 235 53 71 23 42 348 325 312 317 289 260 287 46 37 30 327 114 101 289 88 210 184 110 317 55 125 146 191 299 282 207 220 244 291 317 318 317 326
312 334 1 343 49 96 209 338 28 342 39 23 127 218 228 312 276 263 280 72 42 98 126 30 186 263 247 351 342 327 270 176 138 263 193 159 281 205 206 231 228 307 314 314 325
219 226 29 21 154 210 232 246 172 254 15 110 159 216 203 272 283 278 26 118 128 156 159 2 248 302 317 359 8 253 201 136 106 82 219 142 262 151 91 4 304 327 327 328 338
159 219 340 53 295 44 29 288 248 38 314 56 307 117 295 264 210 281 325 184 173 211 190 6 248 221 231 249 132 228 205 178 150 140 208 232 292 160 327 323 334 337 337 331 343
195 229 184 183 261 167 88 112 276 283 212 139 229 234 355 288 303 236 236 213 205 225 197 171 242 224 252 259 237 231 192 184 189 210 180 247 200 266 237 232 272 287 341 349 349
164 141 346 78 99 121 193 234 229 233 155 245 200 9 334 272 283 288 293 193 224 172 194 152 257 63 277 260 215 245 223 210 212 242 273 229 297 167 234 150 28 336 353 350 346
198 151 120 158 131 128 210 209 214 111 299 240 212 332 269 276 312 285 265 296 271 191 187 184 249 117 269 291 51 288 227 194 180 203 157 190 208 150 123 74 6 4 334 342 338